GLO1103 SBSG-SBSP

Flight info

Callsign GLO1103
Flight time 3h 3m
Altitude 38000
Route DAKE2A SIKEL UZ21 IREKI UZ30 ENTIT ORES1B
Aircraft B738/M-SDFGIKLORWXY/LB1

Departure

Time 2026-05-04 14:16
Airport Rio Grande do Norte/São Gonçalo do Amarante–Governador Aluízio Alves International Airport (SBSG)

Arrival

Time 2026-05-04 17:20
Airport Congonhas–Deputado Freitas Nobre Airport (SBSP)
Time Latitude Longitude Altitude Speed Heading
2026-05-04 14:08 -5.76452 -35.37235 273 ft 0 kts
2026-05-04 14:11 -5.76492 -35.37246 273 ft 4 kts 26°
2026-05-04 14:11 -5.76513 -35.37260 274 ft 4 kts 58°
2026-05-04 14:12 -5.76519 -35.37276 273 ft 0 kts 99°
2026-05-04 14:13 -5.76519 -35.37275 273 ft 2 kts 100°
2026-05-04 14:13 -5.76616 -35.37225 273 ft 17 kts 188°
2026-05-04 14:13 -5.76695 -35.37301 273 ft 16 kts 258°
2026-05-04 14:13 -5.76680 -35.37411 272 ft 16 kts 282°
2026-05-04 14:14 -5.76660 -35.37517 272 ft 15 kts 277°
2026-05-04 14:14 -5.76624 -35.37752 273 ft 23 kts 279°
2026-05-04 14:14 -5.76603 -35.37907 273 ft 22 kts 261°
2026-05-04 14:15 -5.76802 -35.37738 272 ft 72 kts 101°
2026-05-04 14:15 -5.77132 -35.35805 458 ft 187 kts 99°
2026-05-04 14:16 -5.77542 -35.33380 2325 ft 174 kts 104°
2026-05-04 14:16 -5.78178 -35.32392 2597 ft 176 kts 150°
2026-05-04 14:17 -5.80574 -35.31067 3235 ft 223 kts 158°
2026-05-04 14:17 -5.82188 -35.30954 3418 ft 250 kts 193°
2026-05-04 14:17 -5.85568 -35.32381 4824 ft 269 kts 201°
2026-05-04 14:18 -5.87301 -35.33123 5662 ft 274 kts 201°
2026-05-04 14:18 -5.90873 -35.34614 7293 ft 283 kts 200°
2026-05-04 14:19 -5.94577 -35.36108 8848 ft 291 kts 200°
2026-05-04 14:19 -5.96477 -35.36864 9574 ft 296 kts 200°
2026-05-04 14:19 -5.98408 -35.37626 10277 ft 301 kts 200°
2026-05-04 14:19 -6.00431 -35.38420 10514 ft 324 kts 200°
2026-05-04 14:20 -6.02600 -35.39270 10695 ft 346 kts 200°
2026-05-04 14:20 -6.04891 -35.40166 11061 ft 360 kts 200°
2026-05-04 14:20 -6.07249 -35.41087 11649 ft 365 kts 200°
2026-05-04 14:21 -6.12019 -35.42948 12982 ft 371 kts 200°
2026-05-04 14:21 -6.14437 -35.43891 13642 ft 374 kts 200°
2026-05-04 14:21 -6.16878 -35.44841 14272 ft 378 kts 200°
2026-05-04 14:21 -6.19346 -35.45803 14867 ft 382 kts 200°
2026-05-04 14:22 -6.21832 -35.46772 15470 ft 385 kts 200°
2026-05-04 14:22 -6.24338 -35.47749 16059 ft 388 kts 200°
2026-05-04 14:22 -6.26833 -35.48721 16603 ft 391 kts 200°
2026-05-04 14:22 -6.29380 -35.49713 17153 ft 394 kts 200°
2026-05-04 14:23 -6.34531 -35.51721 18179 ft 400 kts 200°
2026-05-04 14:23 -6.37139 -35.52738 18672 ft 403 kts 200°
2026-05-04 14:23 -6.39764 -35.53761 19141 ft 406 kts 200°
2026-05-04 14:24 -6.42417 -35.54795 19579 ft 410 kts 200°
2026-05-04 14:24 -6.45092 -35.55838 20020 ft 413 kts 200°
2026-05-04 14:24 -6.47774 -35.56884 20462 ft 415 kts 200°
2026-05-04 14:24 -6.50479 -35.57938 20886 ft 418 kts 200°
2026-05-04 14:25 -6.53200 -35.59000 21300 ft 421 kts 200°
2026-05-04 14:25 -6.58707 -35.61148 22065 ft 427 kts 200°
2026-05-04 14:25 -6.61483 -35.62231 22439 ft 429 kts 200°
2026-05-04 14:26 -6.64274 -35.63320 22802 ft 431 kts 200°
2026-05-04 14:26 -6.67081 -35.64416 23153 ft 434 kts 200°
2026-05-04 14:26 -6.69869 -35.65504 23478 ft 437 kts 200°
2026-05-04 14:26 -6.72743 -35.66626 23799 ft 439 kts 200°
2026-05-04 14:27 -6.75562 -35.67726 24134 ft 441 kts 200°
2026-05-04 14:27 -6.78432 -35.68847 24457 ft 443 kts 200°
2026-05-04 14:27 -6.81314 -35.69972 24790 ft 444 kts 200°
2026-05-04 14:27 -6.84195 -35.71097 25117 ft 446 kts 201°
2026-05-04 14:28 -6.87092 -35.72229 25431 ft 447 kts 201°
2026-05-04 14:28 -6.89999 -35.73365 25722 ft 449 kts 201°
2026-05-04 14:28 -6.92916 -35.74504 26018 ft 450 kts 201°
2026-05-04 14:28 -6.95835 -35.75646 26312 ft 452 kts 201°
2026-05-04 14:29 -7.01717 -35.77946 26875 ft 454 kts 201°
2026-05-04 14:29 -7.07637 -35.80260 27410 ft 457 kts 201°
2026-05-04 14:30 -7.10600 -35.81418 27692 ft 458 kts 201°
2026-05-04 14:30 -7.12570 -35.82189 27855 ft 458 kts 201°
2026-05-04 14:30 -7.18532 -35.84523 28303 ft 461 kts 201°
2026-05-04 14:31 -7.21533 -35.85696 28512 ft 462 kts 201°
2026-05-04 14:31 -7.27539 -35.88042 28947 ft 464 kts 201°
2026-05-04 14:32 -7.33531 -35.90392 29345 ft 466 kts 202°
2026-05-04 14:32 -7.36558 -35.91580 29536 ft 468 kts 201°
2026-05-04 14:32 -7.39593 -35.92767 29758 ft 468 kts 202°
2026-05-04 14:32 -7.42633 -35.93956 30008 ft 468 kts 202°
2026-05-04 14:33 -7.45664 -35.95143 30325 ft 467 kts 202°
2026-05-04 14:33 -7.48681 -35.96324 30661 ft 465 kts 202°
2026-05-04 14:33 -7.51694 -35.97503 30960 ft 464 kts 202°
2026-05-04 14:33 -7.54705 -35.98683 31212 ft 463 kts 202°
2026-05-04 14:34 -7.57716 -35.99863 31477 ft 464 kts 202°
2026-05-04 14:34 -7.60725 -36.01043 31796 ft 462 kts 202°
2026-05-04 14:34 -7.63713 -36.02215 32089 ft 461 kts 202°
2026-05-04 14:34 -7.66703 -36.03387 32367 ft 461 kts 202°
2026-05-04 14:35 -7.69692 -36.04559 32644 ft 460 kts 202°
2026-05-04 14:35 -7.72673 -36.05728 32923 ft 459 kts 202°
2026-05-04 14:35 -7.75649 -36.06895 33205 ft 458 kts 202°
2026-05-04 14:35 -7.78620 -36.08061 33502 ft 457 kts 202°
2026-05-04 14:36 -7.81582 -36.09223 33789 ft 456 kts 202°
2026-05-04 14:36 -7.84533 -36.10381 34036 ft 456 kts 202°
2026-05-04 14:36 -7.87491 -36.11542 34283 ft 456 kts 202°
2026-05-04 14:36 -7.90404 -36.12686 34534 ft 455 kts 202°
2026-05-04 14:37 -7.93385 -36.13857 34793 ft 454 kts 202°
2026-05-04 14:37 -7.96335 -36.15015 35064 ft 453 kts 202°
2026-05-04 14:37 -7.99266 -36.16167 35308 ft 453 kts 202°
2026-05-04 14:37 -8.02161 -36.17304 35528 ft 452 kts 202°
2026-05-04 14:38 -8.05099 -36.18459 35767 ft 452 kts 202°
2026-05-04 14:38 -8.08021 -36.19607 36009 ft 451 kts 202°
2026-05-04 14:38 -8.10958 -36.20761 36218 ft 451 kts 202°
2026-05-04 14:38 -8.13884 -36.21911 36401 ft 451 kts 202°
2026-05-04 14:39 -8.16808 -36.23061 36597 ft 451 kts 202°
2026-05-04 14:39 -8.19730 -36.24209 36819 ft 449 kts 202°
2026-05-04 14:39 -8.22628 -36.25349 37210 ft 444 kts 202°
2026-05-04 14:40 -8.28328 -36.27590 37825 ft 438 kts 202°
2026-05-04 14:40 -8.31169 -36.28708 37938 ft 439 kts 202°
2026-05-04 14:40 -8.34022 -36.29831 38045 ft 440 kts 202°
2026-05-04 14:40 -8.36874 -36.30953 38058 ft 442 kts 202°
2026-05-04 14:41 -8.42636 -36.33223 38073 ft 447 kts 202°
2026-05-04 14:42 -8.54298 -36.37817 38077 ft 456 kts 202°
2026-05-04 14:42 -8.60225 -36.40152 38067 ft 459 kts 202°
2026-05-04 14:43 -8.66185 -36.42501 38064 ft 460 kts 202°
2026-05-04 14:43 -8.72162 -36.44858 38065 ft 461 kts 202°
2026-05-04 14:44 -8.78137 -36.47214 38059 ft 461 kts 202°
2026-05-04 14:44 -8.84104 -36.49568 38064 ft 460 kts 202°
2026-05-04 14:45 -8.90023 -36.51905 38070 ft 459 kts 202°
2026-05-04 14:45 -8.95979 -36.54257 38055 ft 459 kts 202°
2026-05-04 14:46 -9.01925 -36.56606 38050 ft 458 kts 202°
2026-05-04 14:46 -9.07851 -36.58948 38052 ft 457 kts 202°
2026-05-04 14:47 -9.13778 -36.61291 38054 ft 456 kts 202°
2026-05-04 14:47 -9.19690 -36.63629 38057 ft 456 kts 202°
2026-05-04 14:48 -9.25307 -36.66538 38050 ft 452 kts 217°
2026-05-04 14:48 -9.30344 -36.70344 38057 ft 452 kts 218°
2026-05-04 14:49 -9.35381 -36.74176 38052 ft 452 kts 218°
2026-05-04 14:49 -9.40402 -36.77948 38053 ft 452 kts 217°
2026-05-04 14:50 -9.45470 -36.81729 38059 ft 453 kts 217°
2026-05-04 14:50 -9.50548 -36.85518 38053 ft 453 kts 217°
2026-05-04 14:51 -9.55620 -36.89305 38055 ft 453 kts 217°
2026-05-04 14:51 -9.60683 -36.93089 38056 ft 452 kts 217°
2026-05-04 14:52 -9.65749 -36.96875 38056 ft 453 kts 217°
2026-05-04 14:52 -9.70827 -37.00672 38054 ft 453 kts 217°
2026-05-04 14:53 -9.75865 -37.04499 38062 ft 453 kts 218°
2026-05-04 14:53 -9.80831 -37.08391 38054 ft 453 kts 218°
2026-05-04 14:54 -9.85831 -37.12297 38051 ft 453 kts 218°
2026-05-04 14:54 -9.90854 -37.16177 38058 ft 453 kts 217°
2026-05-04 14:55 -9.95927 -37.19970 38054 ft 453 kts 217°
2026-05-04 14:55 -10.01014 -37.23761 38055 ft 453 kts 217°
2026-05-04 14:56 -10.06092 -37.27561 38057 ft 453 kts 217°
2026-05-04 14:56 -10.11165 -37.31368 38055 ft 453 kts 217°
2026-05-04 14:57 -10.16235 -37.35174 38055 ft 453 kts 217°
2026-05-04 14:57 -10.21277 -37.38962 38056 ft 453 kts 217°
2026-05-04 14:58 -10.26349 -37.42775 38056 ft 453 kts 217°
2026-05-04 14:58 -10.31415 -37.46584 38053 ft 453 kts 217°
2026-05-04 14:59 -10.36483 -37.50395 38059 ft 453 kts 217°
2026-05-04 15:00 -10.44085 -37.56117 38052 ft 453 kts 217°
2026-05-04 15:00 -10.49151 -37.59931 38055 ft 453 kts 217°
2026-05-04 15:01 -10.56740 -37.65657 38054 ft 453 kts 217°
2026-05-04 15:01 -10.61762 -37.69456 38059 ft 453 kts 217°
2026-05-04 15:02 -10.66819 -37.73283 38054 ft 453 kts 217°
2026-05-04 15:02 -10.71882 -37.77115 38058 ft 453 kts 217°
2026-05-04 15:03 -10.76938 -37.80944 38055 ft 453 kts 217°
2026-05-04 15:03 -10.81998 -37.84777 38055 ft 453 kts 217°
2026-05-04 15:04 -10.87058 -37.88612 38055 ft 453 kts 217°
2026-05-04 15:04 -10.92118 -37.92446 38059 ft 454 kts 217°
2026-05-04 15:05 -10.97182 -37.96289 38057 ft 454 kts 217°
2026-05-04 15:05 -11.02246 -38.00133 38055 ft 454 kts 217°
2026-05-04 15:06 -11.07314 -38.03982 38056 ft 454 kts 217°
2026-05-04 15:07 -11.14907 -38.09748 38058 ft 454 kts 217°
2026-05-04 15:07 -11.19965 -38.13592 38061 ft 453 kts 217°
2026-05-04 15:08 -11.24983 -38.17409 38063 ft 453 kts 217°
2026-05-04 15:08 -11.30039 -38.21255 38068 ft 453 kts 217°
2026-05-04 15:09 -11.35097 -38.25106 38063 ft 454 kts 217°
2026-05-04 15:09 -11.40149 -38.28953 38066 ft 454 kts 217°
2026-05-04 15:10 -11.47743 -38.34740 38066 ft 454 kts 217°
2026-05-04 15:11 -11.55313 -38.40543 38080 ft 454 kts 217°
2026-05-04 15:11 -11.60348 -38.44421 38073 ft 454 kts 217°
2026-05-04 15:12 -11.65390 -38.48303 38080 ft 454 kts 217°
2026-05-04 15:12 -11.70433 -38.52185 38072 ft 454 kts 217°
2026-05-04 15:13 -11.75494 -38.56047 38082 ft 454 kts 217°
2026-05-04 15:13 -11.80552 -38.59897 38080 ft 454 kts 217°
2026-05-04 15:14 -11.85587 -38.63733 38083 ft 454 kts 217°
2026-05-04 15:14 -11.90646 -38.67594 38086 ft 454 kts 217°
2026-05-04 15:15 -11.95709 -38.71461 38085 ft 454 kts 217°
2026-05-04 15:15 -12.00764 -38.75323 38088 ft 454 kts 217°
2026-05-04 15:16 -12.08356 -38.81129 38082 ft 454 kts 217°
2026-05-04 15:17 -12.15089 -38.86280 38085 ft 454 kts 217°
2026-05-04 15:17 -12.22675 -38.92088 38073 ft 454 kts 217°
2026-05-04 15:18 -12.27705 -38.95941 38084 ft 453 kts 217°
2026-05-04 15:19 -12.35277 -39.01745 38082 ft 453 kts 217°
2026-05-04 15:19 -12.42837 -39.07546 38085 ft 453 kts 217°
2026-05-04 15:20 -12.47884 -39.11419 38083 ft 453 kts 217°
2026-05-04 15:20 -12.52899 -39.15272 38085 ft 453 kts 217°
2026-05-04 15:21 -12.57936 -39.19143 38081 ft 453 kts 217°
2026-05-04 15:22 -12.65497 -39.24958 38089 ft 453 kts 218°
2026-05-04 15:22 -12.72997 -39.30881 38090 ft 453 kts 218°
2026-05-04 15:23 -12.77979 -39.34842 38094 ft 452 kts 218°
2026-05-04 15:23 -12.82955 -39.38790 38091 ft 452 kts 218°
2026-05-04 15:24 -12.92910 -39.46685 38094 ft 452 kts 218°
2026-05-04 15:25 -12.97855 -39.50610 38102 ft 452 kts 218°
2026-05-04 15:26 -13.05320 -39.56537 38103 ft 453 kts 218°
2026-05-04 15:26 -13.12784 -39.62469 38107 ft 452 kts 218°
2026-05-04 15:27 -13.20249 -39.68408 38106 ft 452 kts 218°
2026-05-04 15:28 -13.27667 -39.74314 38108 ft 452 kts 218°
2026-05-04 15:29 -13.35157 -39.80204 38111 ft 452 kts 218°
2026-05-04 15:30 -13.52614 -39.93893 38111 ft 451 kts 218°
2026-05-04 15:31 -13.60081 -39.99764 38120 ft 450 kts 218°
2026-05-04 15:32 -13.72493 -40.09592 38123 ft 450 kts 218°
2026-05-04 15:34 -13.84862 -40.19402 38124 ft 450 kts 218°
2026-05-04 15:34 -13.92298 -40.25304 38123 ft 450 kts 218°
2026-05-04 15:35 -13.99738 -40.31215 38121 ft 450 kts 218°
2026-05-04 15:36 -14.07169 -40.37125 38120 ft 450 kts 218°
2026-05-04 15:36 -14.12122 -40.41066 38122 ft 450 kts 218°
2026-05-04 15:37 -14.17037 -40.44986 38117 ft 449 kts 219°
2026-05-04 15:37 -14.21980 -40.48932 38117 ft 449 kts 219°
2026-05-04 15:38 -14.26918 -40.52876 38119 ft 449 kts 219°
2026-05-04 15:38 -14.31863 -40.56829 38121 ft 449 kts 219°
2026-05-04 15:39 -14.36802 -40.60778 38126 ft 449 kts 219°
2026-05-04 15:40 -14.44218 -40.66713 38123 ft 449 kts 219°
2026-05-04 15:40 -14.49162 -40.70672 38116 ft 449 kts 219°
2026-05-04 15:41 -14.54066 -40.74601 38121 ft 449 kts 219°
2026-05-04 15:41 -14.59000 -40.78557 38129 ft 449 kts 219°
2026-05-04 15:42 -14.63936 -40.82517 38132 ft 449 kts 219°
2026-05-04 15:42 -14.68865 -40.86474 38130 ft 449 kts 219°
2026-05-04 15:43 -14.73800 -40.90437 38128 ft 449 kts 219°
2026-05-04 15:43 -14.78736 -40.94403 38132 ft 449 kts 219°
2026-05-04 15:44 -14.83671 -40.98373 38129 ft 449 kts 219°
2026-05-04 15:44 -14.88603 -41.02342 38146 ft 449 kts 219°
2026-05-04 15:45 -14.93503 -41.06287 38134 ft 449 kts 219°
2026-05-04 15:45 -14.98447 -41.10271 38131 ft 449 kts 219°
2026-05-04 15:46 -15.03384 -41.14251 38147 ft 449 kts 219°
2026-05-04 15:46 -15.08314 -41.18226 38139 ft 449 kts 219°
2026-05-04 15:47 -15.13217 -41.22182 38133 ft 449 kts 219°
2026-05-04 15:47 -15.18142 -41.26161 38133 ft 449 kts 219°
2026-05-04 15:48 -15.23071 -41.30143 38142 ft 449 kts 219°
2026-05-04 15:48 -15.30457 -41.36114 38134 ft 449 kts 219°
2026-05-04 15:49 -15.35380 -41.40097 38133 ft 449 kts 219°
2026-05-04 15:49 -15.40302 -41.44084 38142 ft 449 kts 219°
2026-05-04 15:50 -15.45225 -41.48074 38130 ft 449 kts 219°
2026-05-04 15:50 -15.50145 -41.52063 38151 ft 448 kts 219°
2026-05-04 15:51 -15.55032 -41.56027 38139 ft 448 kts 219°
2026-05-04 15:51 -15.59949 -41.60017 38143 ft 448 kts 219°
2026-05-04 15:52 -15.64858 -41.64005 38150 ft 448 kts 219°
2026-05-04 15:52 -15.69758 -41.67987 38140 ft 448 kts 219°
2026-05-04 15:53 -15.74658 -41.71973 38144 ft 447 kts 219°
2026-05-04 15:53 -15.79561 -41.75964 38159 ft 447 kts 219°
2026-05-04 15:54 -15.84460 -41.79953 38156 ft 447 kts 219°
2026-05-04 15:54 -15.89321 -41.83913 38158 ft 447 kts 220°
2026-05-04 15:55 -15.94215 -41.87903 38155 ft 447 kts 220°
2026-05-04 15:55 -15.99113 -41.91899 38165 ft 447 kts 220°
2026-05-04 15:56 -16.04002 -41.95891 38169 ft 446 kts 220°
2026-05-04 15:56 -16.08889 -41.99883 38178 ft 447 kts 220°
2026-05-04 15:57 -16.13777 -42.03878 38175 ft 447 kts 220°
2026-05-04 15:57 -16.18669 -42.07880 38176 ft 447 kts 220°
2026-05-04 15:58 -16.23558 -42.11882 38177 ft 447 kts 220°
2026-05-04 15:58 -16.28446 -42.15887 38175 ft 447 kts 220°
2026-05-04 15:59 -16.33298 -42.19863 38182 ft 447 kts 220°
2026-05-04 15:59 -16.38176 -42.23864 38186 ft 446 kts 220°
2026-05-04 16:00 -16.43057 -42.27869 38186 ft 446 kts 220°
2026-05-04 16:00 -16.47933 -42.31873 38182 ft 446 kts 220°
2026-05-04 16:01 -16.52800 -42.35875 38200 ft 446 kts 220°
2026-05-04 16:01 -16.57671 -42.39881 38203 ft 445 kts 220°
2026-05-04 16:02 -16.62535 -42.43876 38201 ft 445 kts 220°
2026-05-04 16:03 -16.69002 -42.49191 38205 ft 445 kts 220°
2026-05-04 16:03 -16.74655 -42.53844 38204 ft 445 kts 220°
2026-05-04 16:04 -16.78729 -42.57199 38204 ft 445 kts 220°
2026-05-04 16:04 -16.85982 -42.63181 38212 ft 445 kts 220°
2026-05-04 16:05 -16.90842 -42.67191 38201 ft 445 kts 220°
2026-05-04 16:06 -16.98122 -42.73204 38217 ft 445 kts 220°
2026-05-04 16:07 -17.07839 -42.81239 38206 ft 445 kts 220°
2026-05-04 16:08 -17.17534 -42.89267 38217 ft 445 kts 220°
2026-05-04 16:09 -17.29623 -42.99293 38215 ft 444 kts 220°
2026-05-04 16:10 -17.39305 -43.07335 38215 ft 444 kts 220°
2026-05-04 16:11 -17.48940 -43.15351 38211 ft 443 kts 220°
2026-05-04 16:12 -17.63416 -43.27426 38211 ft 443 kts 220°
2026-05-04 16:13 -17.73053 -43.35483 38213 ft 442 kts 220°
2026-05-04 16:14 -17.82670 -43.43537 38218 ft 442 kts 220°
2026-05-04 16:16 -17.94629 -43.53571 38207 ft 441 kts 220°
2026-05-04 16:17 -18.06626 -43.63654 38200 ft 441 kts 221°
2026-05-04 16:18 -18.16196 -43.71720 38211 ft 440 kts 221°
2026-05-04 16:19 -18.28108 -43.81799 38217 ft 440 kts 221°
2026-05-04 16:20 -18.40056 -43.91895 38230 ft 440 kts 220°
2026-05-04 16:22 -18.52030 -44.01979 38230 ft 440 kts 221°
2026-05-04 16:23 -18.66343 -44.14067 38245 ft 440 kts 221°
2026-05-04 16:25 -18.80604 -44.26146 38249 ft 439 kts 221°
2026-05-04 16:26 -18.97168 -44.40340 38256 ft 437 kts 221°
2026-05-04 16:28 -19.08982 -44.50422 38257 ft 436 kts 221°
2026-05-04 16:29 -19.25484 -44.64514 38259 ft 436 kts 221°
2026-05-04 16:31 -19.37284 -44.74618 38258 ft 436 kts 221°
2026-05-04 16:32 -19.51404 -44.86739 38254 ft 436 kts 221°
2026-05-04 16:33 -19.60813 -44.94845 38249 ft 435 kts 221°
2026-05-04 16:34 -19.67862 -45.00933 38246 ft 435 kts 221°
2026-05-04 16:35 -19.81905 -45.13083 38248 ft 435 kts 221°
2026-05-04 16:36 -19.88930 -45.19160 38249 ft 434 kts 221°
2026-05-04 16:37 -19.95976 -45.25238 38252 ft 434 kts 221°
2026-05-04 16:38 -20.05357 -45.33351 38254 ft 434 kts 222°
2026-05-04 16:39 -20.17003 -45.43489 38250 ft 433 kts 222°
2026-05-04 16:40 -20.26288 -45.51654 38249 ft 432 kts 222°
2026-05-04 16:41 -20.37902 -45.61825 38245 ft 432 kts 222°
2026-05-04 16:43 -20.49528 -45.71981 38244 ft 432 kts 222°
2026-05-04 16:43 -20.56503 -45.78088 38243 ft 432 kts 222°
2026-05-04 16:45 -20.70424 -45.90301 38241 ft 432 kts 222°
2026-05-04 16:46 -20.82006 -46.00509 38210 ft 433 kts 222°
2026-05-04 16:47 -20.91285 -46.08710 38207 ft 432 kts 222°
2026-05-04 16:48 -20.98539 -46.14447 38208 ft 436 kts 211°
2026-05-04 16:48 -21.01335 -46.15727 38211 ft 440 kts 202°
2026-05-04 16:49 -21.13035 -46.19744 38202 ft 441 kts 202°
2026-05-04 16:50 -21.24707 -46.23773 38174 ft 442 kts 201°
2026-05-04 16:51 -21.32557 -46.26426 38184 ft 442 kts 201°
2026-05-04 16:52 -21.44258 -46.30410 38184 ft 442 kts 202°
2026-05-04 16:53 -21.53065 -46.33415 38190 ft 442 kts 202°
2026-05-04 16:54 -21.64782 -46.37419 38186 ft 441 kts 202°
2026-05-04 16:55 -21.82218 -46.43793 38189 ft 441 kts 203°
2026-05-04 16:56 -21.96730 -46.49138 37603 ft 439 kts 203°
2026-05-04 16:57 -21.99616 -46.50201 36978 ft 438 kts 203°
2026-05-04 16:57 -22.05336 -46.52309 35699 ft 436 kts 203°
2026-05-04 16:58 -22.14007 -46.55512 33515 ft 442 kts 202°
2026-05-04 16:58 -22.16919 -46.56588 32750 ft 443 kts 202°
2026-05-04 16:59 -22.22782 -46.58757 31122 ft 448 kts 202°
2026-05-04 17:00 -22.34492 -46.63089 28517 ft 438 kts 201°
2026-05-04 17:00 -22.42805 -46.66729 26679 ft 422 kts 220°
2026-05-04 17:01 -22.47022 -46.71040 25488 ft 414 kts 226°
2026-05-04 17:01 -22.51150 -46.75281 24314 ft 409 kts 224°
2026-05-04 17:02 -22.55291 -46.79447 23190 ft 403 kts 224°
2026-05-04 17:02 -22.59305 -46.83500 22796 ft 398 kts 224°
2026-05-04 17:03 -22.61365 -46.85589 22605 ft 412 kts 224°
2026-05-04 17:03 -22.63469 -46.87721 22375 ft 413 kts 224°
2026-05-04 17:03 -22.67643 -46.91923 21946 ft 406 kts 222°
2026-05-04 17:04 -22.72317 -46.95294 21544 ft 402 kts 212°
2026-05-04 17:04 -22.77095 -46.98405 21136 ft 400 kts 213°
2026-05-04 17:05 -22.81798 -47.01569 20695 ft 394 kts 213°
2026-05-04 17:05 -22.86422 -47.04729 20330 ft 397 kts 214°
2026-05-04 17:06 -22.91131 -47.07935 19453 ft 399 kts 213°
2026-05-04 17:06 -22.93479 -47.09519 18905 ft 395 kts 213°
2026-05-04 17:07 -22.98124 -47.12657 17812 ft 390 kts 213°
2026-05-04 17:07 -22.99642 -47.13683 17442 ft 388 kts 212°
2026-05-04 17:07 -23.03001 -47.15020 16710 ft 387 kts 189°
2026-05-04 17:07 -23.05681 -47.14977 16168 ft 386 kts 173°
2026-05-04 17:08 -23.08305 -47.14422 15654 ft 383 kts 169°
2026-05-04 17:08 -23.13430 -47.13209 14590 ft 376 kts 169°
2026-05-04 17:08 -23.15979 -47.12620 14060 ft 373 kts 169°
2026-05-04 17:09 -23.18509 -47.12050 13542 ft 369 kts 169°
2026-05-04 17:09 -23.21019 -47.11494 13023 ft 366 kts 169°
2026-05-04 17:09 -23.23504 -47.10946 12516 ft 363 kts 169°
2026-05-04 17:10 -23.28415 -47.09869 11603 ft 356 kts 169°
2026-05-04 17:10 -23.35448 -47.08328 10345 ft 326 kts 169°
2026-05-04 17:11 -23.37633 -47.07849 10100 ft 310 kts 169°
2026-05-04 17:11 -23.39672 -47.07401 10088 ft 290 kts 169°
2026-05-04 17:11 -23.42891 -47.04969 9035 ft 289 kts 119°
2026-05-04 17:12 -23.43617 -47.02979 8762 ft 279 kts 105°
2026-05-04 17:12 -23.44632 -46.98936 8222 ft 276 kts 104°
2026-05-04 17:13 -23.46175 -46.92827 7283 ft 278 kts 105°
2026-05-04 17:14 -23.47685 -46.86964 6503 ft 264 kts 104°
2026-05-04 17:14 -23.48181 -46.85049 6257 ft 261 kts 105°
2026-05-04 17:14 -23.49132 -46.81357 5758 ft 245 kts 105°
2026-05-04 17:15 -23.49590 -46.79600 5557 ft 236 kts 105°
2026-05-04 17:15 -23.50437 -46.76331 5133 ft 213 kts 104°
2026-05-04 17:16 -23.51408 -46.73490 4718 ft 190 kts 138°
2026-05-04 17:16 -23.54450 -46.71332 4314 ft 156 kts 148°
2026-05-04 17:17 -23.55361 -46.70702 4178 ft 153 kts 148°
2026-05-04 17:17 -23.58019 -46.68862 3609 ft 154 kts 147°
2026-05-04 17:18 -23.58926 -46.68234 3408 ft 155 kts 147°
2026-05-04 17:18 -23.60723 -46.66991 2986 ft 151 kts 147°
2026-05-04 17:19 -23.62414 -46.65821 2606 ft 137 kts 146°
2026-05-04 17:19 -23.63114 -46.65333 2609 ft 56 kts 147°
2026-05-04 17:20 -23.63183 -46.65285 2609 ft 19 kts 147°
2026-05-04 17:20 -23.63379 -46.65212 2604 ft 0 kts 205°
2026-05-04 17:21 -23.63383 -46.65214 2604 ft 2 kts 205°
2026-05-04 17:22 -23.63402 -46.65291 2601 ft 19 kts 315°
2026-05-04 17:22 -23.63284 -46.65368 2601 ft 20 kts 328°
2026-05-04 17:23 -23.62964 -46.65546 2602 ft 14 kts 327°
2026-05-04 17:23 -23.62885 -46.65605 2602 ft 13 kts 328°
2026-05-04 17:23 -23.62752 -46.65709 2601 ft 11 kts 287°
2026-05-04 17:24 -23.62775 -46.65766 2600 ft 6 kts 237°